Weather in Zhanatas

Kazakhstan     43°33′16″N   69°43′21″E
temp.,
°C
wind,
m/s
gust,
m/s
humid.,
%
clouds,
%
prec.,
mm/h
press.,
hPa
HPBL,
m
11 may, tue
tue1100:00+16se2235100 0.0 101411
03:00+14wnw22360 0.0 101311
06:00+11wsw11520 0.0 101411
09:00+17nw33520 0.0 1015549
12:00+20wnw44440 0.0 10161434
15:00+23w34324 0.0 10152263
18:00+23nw443570 0.0 10151762
21:00+18n34475 0.0 101765
12 may, wed
wed1200:00+15nnw12530 0.0 101611
03:00+14nne22610 0.0 101611
06:00+13ene236710 0.0 101726
09:00+17ene810559 0.0 1018665
12:00+19ene911414 0.0 10181306
15:00+21ne1111334 0.0 10181956
18:00+21ne1112260 0.0 10181869
21:00+16ne1117271 0.0 1019639
13 may, thu
thu1300:00+13ene1018292 0.0 1019623
03:00+12ene918355 0.0 1018611
06:00+11ene7173959 0.0 1018474
09:00+14ene1115380 0.0 1019987
12:00+19ene1215250 0.0 10181503
15:00+21ene1213220 0.0 10171874
18:00+21ne1113230 0.0 10162076
21:00+17ne816270 0.0 1017433
14 may, fri
fri1400:00+15ene715315 0.0 1017354
03:00+14ene615330 0.0 1017312
06:00+11ene5134116 0.0 1018272
09:00+15ene10164130 0.0 1018881
12:00+21ene13153531 0.0 10171614
15:00+23ene1315315 0.0 10161759
18:00+22ene1316300 0.0 10161881
21:00+18ene1319320 0.0 1017919
15 may, sat
sat1500:00+15ene1320370 0.0 1017812
03:00+14ene1120400 0.0 1016775
06:00+12ene1120380 0.0 1016751
09:00+16ene1420350 0.0 10171160
12:00+20ene1518230 0.0 10161342
15:00+22ene1517200 0.0 10141708
18:00+22ene1317220 0.0 10131936
21:00+18ene1018250 0.0 1014678